This is the latest recevied weather packets stored in our database for station/object KG5MMT-15. If no packets are shown the sender has not sent any weather packets the latest 10 day(s).
| Time | Temp. | Humidity | Pressure | Rain* | Wind** | Luminosity | Snow |
|---|---|---|---|---|---|---|---|
| 1788450464 | 25° C | 31% | 0 hPa | 0 mm | - | - | - |
| 1788450164 | 25° C | 31% | 0 hPa | 0 mm | - | - | - |
| 1788449864 | 25° C | 32% | 0 hPa | 0 mm | - | - | - |
| 1788449565 | 25° C | 32% | 0 hPa | 0 mm | - | - | - |
| 1788449264 | 25° C | 33% | 0 hPa | 0 mm | - | - | - |
| 1788448965 | 25° C | 33% | 0 hPa | 0 mm | - | - | - |
| 1788448672 | 24.44° C | 33% | 0 hPa | 0 mm | - | - | - |
| 1788448365 | 24.44° C | 32% | 0 hPa | 0 mm | - | - | - |
| 1788448065 | 24.44° C | 33% | 0 hPa | 0 mm | - | - | - |
| 1788447765 | 24.44° C | 35% | 0 hPa | 0 mm | - | - | - |
| 1788447465 | 23.89° C | 35% | 0 hPa | 0 mm | - | - | - |
| 1788447165 | 23.33° C | 37% | 0 hPa | 0 mm | - | - | - |
| 1788446865 | 22.78° C | 39% | 0 hPa | 0 mm | - | - | - |
| 1788446565 | 22.22° C | 43% | 0 hPa | 0 mm | - | - | - |
| 1788446265 | 21.67° C | 51% | 0 hPa | 0 mm | - | - | - |
| 1788445965 | 21.11° C | 54% | 0 hPa | 0 mm | - | - | - |
| 1788445665 | 20.56° C | 57% | 0 hPa | 0 mm | - | - | - |
| 1788445365 | 20° C | 58% | 0 hPa | 0 mm | - | - | - |
| 1788445065 | 18.89° C | 55% | 0 hPa | 0 mm | - | - | - |
| 1788444765 | 18.33° C | 61% | 0 hPa | 0 mm | - | - | - |
| 1788444465 | 17.22° C | 64% | 0 hPa | 0 mm | - | - | - |
| 1788444165 | 16.67° C | 67% | 0 hPa | 0 mm | - | - | - |
| 1788443865 | 16.11° C | 67% | 0 hPa | 0 mm | - | - | - |
| 1788443565 | 16.11° C | 66% | 0 hPa | 0 mm | - | - | - |
| 1788443265 | 16.11° C | 65% | 0 hPa | 0 mm | - | - | - |
* Rain latest hour (hover to see other rain measurements)
** Current wind speed in m/s (hover to see current wind gust speed)